Tucson, AZ

4:56 AM MST on February 11, 2016 (GMT -0700)
Davis-Monthan Air Force Base

Weather History for KDMA - April, 2013

Change the Weather History Date:

Sunday, April 7, 2013

  Actual Average Record
Temperature  
Mean Temperature 70 °F -  
Max Temperature 84 °F 79 °F 99 °F (1989)
Min Temperature 55 °F 50 °F 35 °F (1975)
Cooling Degree Days 4    
Growing Degree Days 20 (Base 50)    
Moisture  
Dew Point 28 °F    
Average Humidity 23    
Maximum Humidity 43    
Minimum Humidity 10    
Precipitation  
Precipitation 0.00 in - - ()
Sea Level Pressure  
Sea Level Pressure 29.76 in    
Wind  
Wind Speed 6 mph (SW)    
Max Wind Speed 15 mph    
Max Gust Speed 22 mph    
Visibility 10 miles    
Events      
Averages and records for this station are not official NWS values.
T = Trace of Precipitation, MM = Missing Value Source: NWS Daily Summary

Daily Weather History Graph

Daily Weather History Graph

Search for Another Location

Airport or City:

Trip Planner

Search our weather history database for the weather conditions in past years. The results will help you decide how hot, cold, wet, or windy it might be!

Date:

Astronomy

Apr. 07, 2013 Rise Set
Actual Time 6:03 AM MST 6:47 PM MST
Civil Twilight 5:39 AM MST 7:12 PM MST
Nautical Twilight 5:09 AM MST 7:41 PM MST
Astronomical Twilight 4:39 AM MST 8:11 PM MST
Moon 4:14 AM MST (4/7) 4:30 PM MST (4/7)
Length of Visible Light 13h 33m
Length of Day
12h 43m
Waning Crescent, 7% of the Moon is Illuminated
Apr 7
Waning Crescent
Apr 10
New
Apr 18
First Quarter
Apr 25
Full
May 2
Last Quarter

Hourly Weather History & Observations

Time (MST) Temp. Dew Point Humidity Pressure Visibility Wind Dir Wind Speed Gust Speed Precip Events Conditions
12:58 AM 63.5 °F 32.7 °F 32% 29.84 in 10.0 mi South 1.2 mph - N/A   Clear
1:58 AM 61.5 °F 34.5 °F 36% 29.82 in 10.0 mi SSE 5.8 mph - N/A   Clear
2:58 AM 59.4 °F 35.4 °F 41% 29.80 in 10.0 mi SSE 6.9 mph - N/A   Clear
3:58 AM 60.1 °F 35.6 °F 40% 29.77 in 10.0 mi ESE 5.8 mph - N/A   Clear
4:58 AM 57.0 °F 34.7 °F 43% 29.79 in 10.0 mi ESE 4.6 mph - N/A   Clear
5:58 AM 55.0 °F 32.7 °F 43% 29.81 in 10.0 mi SSE 8.1 mph - N/A   Clear
6:58 AM 59.2 °F 34.5 °F 40% 29.82 in 10.0 mi SSE 8.1 mph - N/A   Clear
7:58 AM 65.8 °F 34.3 °F 31% 29.84 in 10.0 mi South 4.6 mph - N/A   Clear
8:58 AM 71.1 °F 32.2 °F 24% 29.83 in 10.0 mi SSW 6.9 mph - N/A   Clear
9:58 AM 74.1 °F 33.4 °F 23% 29.83 in 10.0 mi SSE 6.9 mph - N/A   Clear
10:58 AM 75.6 °F 29.7 °F 18% 29.81 in 10.0 mi Variable 1.2 mph - N/A   Clear
11:58 AM 78.8 °F 26.2 °F 14% 29.79 in 10.0 mi WNW 6.9 mph - N/A   Clear
12:58 PM 81.1 °F 26.4 °F 13% 29.78 in 10.0 mi West 8.1 mph - N/A   Clear
1:58 PM 82.4 °F 19.0 °F 10% 29.74 in 10.0 mi WNW 6.9 mph 18.4 mph N/A   Clear
2:58 PM 84.0 °F 21.4 °F 10% 29.72 in 10.0 mi WNW 11.5 mph 19.6 mph N/A   Clear
3:06 PM 82.4 °F 21.2 °F 10% 29.81 in 10.0 mi NNW 11.5 mph 17.3 mph N/A   Clear
3:58 PM 84.2 °F 22.5 °F 10% 29.69 in 10.0 mi NW 13.8 mph 18.4 mph N/A   Clear
4:58 PM 83.7 °F 22.1 °F 10% 29.69 in 10.0 mi NW 15.0 mph 21.9 mph N/A   Clear
5:58 PM 82.6 °F 23.5 °F 11% 29.69 in 10.0 mi WNW 9.2 mph - N/A   Clear
6:58 PM 79.7 °F 23.2 °F 12% 29.69 in 10.0 mi West 6.9 mph - N/A   Clear
7:58 PM 76.8 °F 26.2 °F 15% 29.69 in 10.0 mi West 5.8 mph - N/A   Clear
8:58 PM 70.7 °F 27.0 °F 20% 29.69 in 10.0 mi SW 5.8 mph - N/A   Clear
9:58 PM 69.6 °F 27.3 °F 21% 29.69 in 10.0 mi West 5.8 mph - N/A   Clear
10:58 PM 64.6 °F 27.3 °F 25% 29.69 in 10.0 mi South 5.8 mph - N/A   Clear
11:58 PM 64.9 °F 28.6 °F 25% 29.69 in 10.0 mi SSW 3.5 mph - N/A   Clear